This demonstration page uses our WeatherBlox Daily Observations layout. Learn more.

39.92423, -83.80882

Hourly Observations for May 23, 2019

Temp ( °F °C ) Dew Point ( °F °C ) Humidity (%) Winds ( mph kmh ) Pressure ( in mb ) Visibility ( mi km ) Precip ( " mm )
12:56 am 00:56 Clear 68 20 67 19.4 96 96 S 3 6 30.04 1017 10 16.0934 0 0
1:56 am 01:56 Clear 67 19.4 67 19.4 100 100 S 6 9 30.05 1018 8 12.87472 0 0
2:56 am 02:56 Clear 67 19.4 67 19.4 100 100 S 7 11 30.03 1017 8 12.87472 0 0
3:56 am 03:56 Clear 67 19.4 67 19.4 100 100 SW 5 7 30.04 1017 10 16.0934 0 0
4:56 am 04:56 Clear 69 20.6 68 20 96 96 SSW 6 9 30.04 1017 10 16.0934 0 0
5:56 am 05:56 Mostly Clear 69 20.6 67 19.4 93 93 SSW 9 15 30.05 1018 10 16.0934 0 0
6:07 am 06:07 Partly Cloudy with Nearby Thunderstorms 70 21 66 19 88 88 SSW 8 13 30.03 1017 10 16.0934 0 0
6:44 am 06:44 Mostly Cloudy 70 21 66 19 88 88 SW 12 19 30.04 1017 10 16.0934 0 0
6:56 am 06:56 Cloudy 70 21.1 67 19.4 90 90 SW 14 22 30.06 1018 10 16.0934 0 0
7:41 am 07:41 Cloudy with Nearby Thunderstorms 72 22 66 19 83 83 W 28 44 30.07 1018 10 16.0934 0 0
7:49 am 07:49 Cloudy with Nearby Thunderstorms 70 21 64 18 83 83 W 21 33 30.09 1019 10 16.0934 0 0.0254
7:56 am 07:56 Cloudy with Thunderstorms 68 20 64 17.8 87 87 WNW 22 35 30.12 1020 9 14.48406 0.01 0.254
8:45 am 08:45 Cloudy with Rain 64 18 64 18 100 100 SSW 7 11 30.14 1021 10 16.0934 0.07 1.778
8:56 am 08:56 Cloudy with Rain 65 18.3 65 18.3 100 100 SW 8 13 30.16 1021 10 16.0934 0.09 2.286
9:56 am 09:56 Cloudy with Light Rain 65 18.3 65 18.3 100 100 SSW 8 13 30.14 1021 10 16.0934 0.06 1.524
10:56 am 10:56 Mostly Cloudy 68 20 67 19.4 96 96 SSW 7 11 30.09 1019 10 16.0934 0.06 1.524
11:56 am 11:56 Mostly Sunny 74 23.3 68 20 82 82 SW 17 28 30.08 1019 10 16.0934 0.01 0.254
12:56 pm 12:56 Cloudy 74 23.3 67 19.4 79 79 WSW 18 30 30.08 1019 10 16.0934 0 0
1:56 pm 13:56 Mostly Cloudy 77 25 71 21.7 82 82 WSW 18 30 30.06 1018 10 16.0934 0 0
2:56 pm 14:56 Mostly Cloudy 77 25 70 21.1 79 79 WSW 22 35 30.05 1018 10 16.0934 0 0
3:56 pm 15:56 Cloudy 78 25.6 72 22.2 82 82 WSW 15 24 30.04 1017 10 16.0934 0 0
4:56 pm 16:56 Cloudy 79 26.1 72 22.2 79 79 WSW 13 20 30.03 1017 10 16.0934 0 0
5:07 pm 17:07 Mostly Cloudy 81 27 72 22 74 74 WSW 17 28 29.99 1015 10 16.0934 0 0
5:56 pm 17:56 Mostly Cloudy 81 27.2 71 21.7 72 72 WSW 17 28 30.02 1017 10 16.0934 0 0
6:56 pm 18:56 Mostly Cloudy 80 26.7 70 21.1 71 71 W 18 30 30.02 1017 10 16.0934 0 0
7:56 pm 19:56 Mostly Cloudy with Nearby Thunderstorms 79 26.1 70 21.1 74 74 WSW 13 20 30.02 1017 10 16.0934 0 0
8:15 pm 20:15 Mostly Cloudy with Light Rain 75 24 72 22 89 89 W 10 17 30 1016 10 16.0934 0 0.0254
8:56 pm 20:56 Cloudy 74 23.3 71 21.7 91 91 W 7 11 30.04 1017 10 16.0934 0 0.0254
9:56 pm 21:56 Mostly Cloudy 74 23.3 70 21.1 88 88 WNW 6 9 30.06 1018 10 16.0934 0 0
10:56 pm 22:56 Mostly Cloudy 74 23.3 69 20.6 85 85 WNW 10 17 30.08 1019 10 16.0934 0 0
11:56 pm 23:56 Mostly Cloudy 70 21.1 67 19.4 90 90 NNW 6 9 30.09 1019 10 16.0934 0 0

Powered by AerisWeather